SCOUT G-1 DEB, 43332

Orbit data source: Space-Track

SCOUT G-1 DEB, 43332 is space debris in LEO originally from a launch on Tue, 26 Apr 1988 UTC launched from the Air Force Western Test Range (AFWTR). Debris objects in space refer to the collection of defunct objects orbiting the Earth. Examples of debris include non-operational satellites, rocket bodies, and fragments generated from explosions, collisions, or faulty payload assembly.

Loading next visibility...
Identifier
43332, 1988-033N
Orbit
LEO
Country
Flag of USUS
Related business
Manufacturer
Unknown
Mission
Spacecraft
Bus & Motor
Unknown
Mass
Unknown
Launch date (UTC)
1988-04-26 (38 years ago)
Launch vehicle
Unknown
Launch site
Air Force Western Test Range (AFWTR)
Object type
Payload
Rocket body
Debris
Shape & HBR
Unknown shape, 0.1 m
Radar Cross Section
Small (<0.1 m²)

Expand to show TLE details & history
Last TLE update: 1 month ago

TLE from 1 month ago
0 SCOUT G-1 DEB
1 43332U 88033N   26127.93471704  .00000197  00000-0  35171-3 0  9997
2 43332  90.3211  17.8865 0180934 309.8555  48.6788 13.33774788471170
Epoch: 2026-05-07T22:25Z
TLE epoch observation values (Epoch: 2026-05-07T22:25:59.552Z)
Latitude
-0.00006°
Longitude
175.61464°
Altitude
1,047.157 km
Speed
7.371 km/s
True Right ascension
01h 11m 32s
True Declination
0° 00' 00"
Sunlit
Object was in daylight at epoch
Visualization orbit readout
Latitude
Unknown
Longitude
Unknown
Altitude
Unknown
Speed
Unknown
Apparent Right ascension
Unknown
Apparent Declination
Unknown
Sunlit
N/A
Visualization observer readout
Local Sidereal Time
21:24:16
Azimuth
Unknown
Elevation
Unknown
Doppler factor
Unknown
Orbital elements
Apogee altitude
1,265.472 km
Perigee altitude
993.79 km
Semi-major axis
7,507.768 km
Eccentricity
0.01809
Inclination
90.3211°
RAAN
17.8865°
Arg. of periapsis
309.8555°
True anomaly
50.25932°
Mean anomaly
48.6788°
Eccentric anomaly
49.4667°
Mean motion
3.33639 °/min
Orbital period
107.9 mins
BSTAR
0.00035171
Loading maneuver chart data...
Computing Atmospheric mass density...
Loading historical data...
Loading historical data...
Loading historical data...
Loading historical data...
Loading historical data...
Loading historical data...
Loading historical data...

Documentation

Showing up to 5 results
|